カタログに戻る

FENGYUN 1C DEB

運用中PO
NORAD 31416·DEBRIS·🇨🇳 China

打ち上げ May 10, 1999 から Taiyuan Satellite Launch Center

Loading…

次のパス (今後24時間)

TLE

最新Source: Space-Track

元期: Sep 14, 2026, 10:41 UTC

1 31416U 99025BTC 26257.44520183  .00000658  00000-0  19839-3 0  9991
2 31416  99.0182 328.1690 0133389 156.5793 204.1547 14.41159297694902

AllMySatでFENGYUN 1C DEBをリアルタイム追跡

Download on the App Store